Date String (YYYY-MM-DD hh:mm:ss) UTC,Instrument flags,Ambient pressure (hPa),Sample flow (lpm),Bypass flow (lpm),Sample temperature (°C),Ambient temperature (°C),ASC tube jacket temperature (°C),LED temperature (°C),Box temperature (°C),Sample RH (%),Span deviation,Mass concentration (μg/m³),Mass concentration (μg/m³),Mass concentration (μg/m³)
DateTimeUTC,F1_M11,P_M11,Q1_M11,Q2_M11,T1_M11,T2_M11,T3_M11,T4_M11,T5_M11,U1_M11,ZSPAN_M11,X0_M11,X2_M11,X1_M11
2022-10-13 08:00:00,,0831.7,5.00,0.00,27.5,25.7,00.0,36.5,29.3,14.9,0000.0,0013.67,0005.78,0004.62
2022-10-13 08:01:00,,0831.7,5.00,0.00,27.5,25.6,00.0,36.5,29.2,14.9,0000.0,0013.84,0005.71,0004.62
2022-10-13 08:02:00,,0831.7,5.01,0.00,27.5,25.6,00.0,36.5,29.2,14.9,0000.0,0014.07,0005.69,0004.62
2022-10-13 08:03:00,,0831.7,5.00,0.00,27.5,25.6,00.0,36.4,29.2,14.9,0000.0,0014.10,0005.67,0004.61
2022-10-13 08:04:00,,0831.7,5.00,0.00,27.5,25.6,00.0,36.4,29.2,14.9,0000.0,0013.82,0005.65,0004.61
2022-10-13 08:05:00,,0831.7,5.00,0.00,27.5,25.6,00.0,36.4,29.2,14.9,0000.0,0013.93,0005.64,0004.60
2022-10-13 08:06:00,,0831.7,4.99,0.00,27.5,25.6,00.0,36.4,29.2,14.9,0000.0,0014.25,0005.65,0004.60
2022-10-13 08:07:00,,0831.7,4.99,0.00,27.5,25.6,00.0,36.4,29.2,14.9,0000.0,0014.13,0005.66,0004.59
2022-10-13 08:08:00,,0831.7,4.99,0.00,27.4,25.6,00.0,36.4,29.2,15.0,0000.0,0013.32,0005.65,0004.60
2022-10-13 08:09:00,,0831.7,5.01,0.00,27.4,25.6,00.0,36.4,29.2,15.0,0000.0,0013.02,0005.70,0004.61
2022-10-13 08:10:00,,0831.7,5.01,0.00,27.4,25.6,00.0,36.3,29.2,15.0,0000.0,0014.07,0005.74,0004.61
2022-10-13 08:11:00,,0831.7,5.01,0.00,27.4,25.6,00.0,36.3,29.1,15.0,0000.0,0013.77,0005.76,0004.61
2022-10-13 08:12:00,,0831.6,5.01,0.00,27.4,25.6,00.0,36.3,29.2,15.0,0000.0,0013.31,0005.80,0004.60
2022-10-13 08:13:00,,0831.7,5.00,0.00,27.4,25.6,00.0,36.3,29.2,15.0,0000.0,0012.89,0005.79,0004.60
2022-10-13 08:14:00,,0831.7,5.00,0.00,27.4,25.6,00.0,36.3,29.2,15.0,0000.0,0013.19,0005.78,0004.60
2022-10-13 08:15:00,,0831.7,5.00,0.00,27.4,25.6,00.0,36.3,29.2,15.0,0000.0,0013.53,0005.80,0004.60
2022-10-13 08:16:00,,0831.7,4.99,0.00,27.4,25.6,00.0,36.3,29.2,15.0,0000.0,0013.27,0005.79,0004.61
2022-10-13 08:17:00,,0831.6,5.00,0.00,27.4,25.6,00.0,36.3,29.2,15.0,0000.0,0013.32,0005.77,0004.62
2022-10-13 08:18:00,,0831.6,5.00,0.00,27.4,25.6,00.0,36.3,29.2,15.0,0000.0,0013.27,0005.75,0004.62
2022-10-13 08:19:00,,0831.6,5.00,0.00,27.3,25.6,00.0,36.3,29.1,15.0,-000.0,0013.48,0005.80,0004.62
2022-10-13 08:20:00,,0831.5,5.00,0.00,27.3,25.5,00.0,36.3,29.1,15.0,-000.1,0013.55,0005.76,0004.61
2022-10-13 08:21:00,,0831.6,5.00,0.00,27.3,25.5,00.0,36.2,29.1,15.1,0000.0,0013.32,0005.73,0004.61
2022-10-13 08:22:00,,0831.5,5.00,0.00,27.3,25.5,00.0,36.2,29.1,15.1,0000.1,0013.23,0005.75,0004.61
2022-10-13 08:23:00,,0831.6,5.00,0.00,27.3,25.5,00.0,36.2,29.1,15.1,0000.0,0013.52,0005.74,0004.62
2022-10-13 08:24:00,,0831.6,5.00,0.00,27.3,25.5,00.0,36.2,29.0,15.1,0000.0,0013.81,0005.76,0004.62
2022-10-13 08:25:00,,0831.6,5.00,0.00,27.3,25.4,00.0,36.2,29.0,15.1,0000.0,0013.56,0005.78,0004.61
2022-10-13 08:26:00,,0831.6,5.00,0.00,27.3,25.5,00.0,36.2,29.0,15.1,0000.0,0013.99,0005.76,0004.62
2022-10-13 08:27:00,,0831.5,5.00,0.00,27.3,25.5,00.0,36.2,29.0,15.1,0000.0,0014.07,0005.75,0004.62
2022-10-13 08:28:00,,0831.5,5.00,0.00,27.3,25.5,00.0,36.2,29.0,15.1,0000.0,0013.42,0005.75,0004.61
2022-10-13 08:29:00,,0831.5,5.00,0.00,27.3,25.5,00.0,36.2,29.0,15.1,0000.0,0014.61,0005.74,0004.60
2022-10-13 08:30:00,,0831.5,5.00,0.00,27.2,25.5,00.0,36.2,28.9,15.1,0000.0,0014.94,0005.67,0004.60
2022-10-13 08:31:00,,0831.5,5.00,0.00,27.2,25.4,00.0,36.2,28.9,15.1,0000.0,0014.90,0005.67,0004.61
2022-10-13 08:32:00,,0831.6,5.00,0.00,27.2,25.4,00.0,36.1,29.0,15.2,0000.0,0014.33,0005.63,0004.59
2022-10-13 08:33:00,,0831.5,5.00,0.00,27.2,25.4,00.0,36.1,29.0,15.2,0000.0,0014.23,0005.67,0004.59
2022-10-13 08:34:00,,0831.5,4.98,0.00,27.2,25.4,00.0,36.1,28.9,15.2,0000.0,0015.68,0005.71,0004.58
2022-10-13 08:35:00,,0831.5,5.00,0.00,27.2,25.4,00.0,36.1,28.9,15.2,0000.0,0015.51,0005.70,0004.60
2022-10-13 08:36:00,,0831.5,5.00,0.00,27.2,25.4,00.0,36.1,29.0,15.2,0000.0,0015.71,0005.72,0004.60
2022-10-13 08:37:00,,0831.5,5.00,0.00,27.2,25.4,00.0,36.1,28.9,15.2,0000.0,0015.04,0005.70,0004.59
2022-10-13 08:38:00,,0831.5,5.00,0.00,27.2,25.4,00.0,36.1,28.9,15.2,0000.0,0015.06,0005.69,0004.57
2022-10-13 08:39:00,,0831.4,5.00,0.00,27.2,25.3,00.0,36.1,28.9,15.2,0000.0,0016.11,0005.70,0004.55
2022-10-13 08:40:00,,0831.5,5.00,0.00,27.1,25.3,00.0,36.1,28.9,15.2,0000.0,0016.15,0005.69,0004.54
2022-10-13 08:41:00,,0831.5,4.98,0.00,27.1,25.3,00.0,36.0,28.9,15.2,0000.0,0015.78,0005.69,0004.52
2022-10-13 08:42:00,,0831.5,5.00,0.00,27.1,25.3,00.0,36.0,28.9,15.2,0000.0,0015.60,0005.70,0004.51
2022-10-13 08:43:00,,0831.5,5.00,0.00,27.1,25.3,00.0,36.0,28.9,15.2,0000.0,0015.99,0005.72,0004.52
2022-10-13 08:44:00,,0831.5,5.00,0.00,27.1,25.3,00.0,36.0,28.9,15.2,0000.0,0015.90,0005.67,0004.51
2022-10-13 08:45:00,,0831.5,5.00,0.00,27.1,25.3,00.0,36.0,28.9,15.2,0000.0,0014.34,0005.60,0004.50
2022-10-13 08:46:00,,0831.5,5.00,0.00,27.1,25.3,00.0,36.0,28.9,15.2,0000.0,0014.74,0005.59,0004.48
2022-10-13 08:47:00,,0831.5,5.00,0.00,27.1,25.3,00.0,36.0,28.9,15.2,0000.0,0014.75,0005.55,0004.47
2022-10-13 08:48:00,,0831.5,5.00,0.00,27.1,25.3,00.0,36.0,28.9,15.2,0000.0,0015.26,0005.54,0004.48
2022-10-13 08:49:00,,0831.5,5.01,0.00,27.1,25.3,00.0,36.0,28.9,15.2,0000.0,0015.50,0005.55,0004.49
2022-10-13 08:50:00,,0831.4,4.98,0.00,27.1,25.3,00.0,36.0,28.9,15.2,0000.0,0014.97,0005.51,0004.50
2022-10-13 08:51:00,,0831.4,5.00,0.00,27.1,25.3,00.0,36.0,28.9,15.2,0000.0,0015.38,0005.49,0004.49
2022-10-13 08:52:00,,0831.4,5.00,0.00,27.1,25.3,00.0,36.0,28.9,15.3,0000.0,0014.84,0005.47,0004.49
2022-10-13 08:53:00,,0831.5,5.00,0.00,27.1,25.3,00.0,36.0,28.8,15.3,0000.0,0015.21,0005.49,0004.50
2022-10-13 08:54:00,,0831.4,5.01,0.00,27.0,25.3,00.0,35.9,28.8,15.3,0000.0,0015.66,0005.51,0004.49
2022-10-13 08:55:00,,0831.3,5.00,0.00,27.0,25.3,00.0,35.9,28.8,15.3,0000.0,0016.07,0005.51,0004.49
2022-10-13 08:56:00,,0831.3,5.01,0.00,27.0,25.3,00.0,35.9,28.8,15.3,0000.0,0017.12,0005.49,0004.48
2022-10-13 08:57:00,,0831.3,5.00,0.00,27.0,25.3,00.0,35.9,28.8,15.3,0000.0,0016.83,0005.52,0004.48
2022-10-13 08:58:00,,0831.2,5.00,0.00,27.0,25.2,00.0,35.9,28.8,15.3,0000.0,0016.96,0005.50,0004.47
2022-10-13 08:59:00,,0831.2,5.00,0.00,27.0,25.2,00.0,35.9,28.8,15.3,0000.0,0016.44,0005.53,0004.47
